Flag for Germany Weather past 2 weeks in Troisdorf, North Rhine-Westphalia, Germany

Now
79 °F

Sunny.


Feels Like: 81 °F
Forecast: 72 / 96 °F
Wind: 2 mph from North

Location: Koeln / Bonn

Current Time: Jul 3, 2015 at 10:36:31 AM

Latest Report: Jul 3, 2015 at 10:20 AM


Visibility: 10 mi

Pressure: 30.24 "Hg

Humidity: 65%

Dew point: 66 °F

Location of TroisdorfLocation

Historic Weather in Troisdorf — Graph

°F

Troisdorf temperature yesterday

Maximum temperature yesterday: 97 °F (at 4:20 PM)
Minimum temperature yesterday: 72 °F (at 4:20 AM)
Average temperature yesterday: 85 °F

Past Weeks' High & Low Weather Summary

 TemperatureHumidityPressure
High97 °F (Jul 2, 4:20 PM)94% (Jun 18, 9:20 AM)30.24 "Hg (Jun 18, 9:20 AM)
Low48 °F (Jun 22, 11:50 PM)17% (Jun 30, 3:50 PM)29.68 "Hg (Jun 22, 9:20 PM)
Average64 °F66%30.07 "Hg
* Reported Jun 18 9:20 AM — Jul 3 9:20 AM, Troisdorf, Weather by CustomWeather, © 2015

Note: Actual official high and low records may vary slightly from our data, if they occured in-between our weather recording intervals... More about our weather records

Advertising

Troisdorf weather history for previous 24 hours

 ConditionsComfort  
Time TempWeatherWind HumidityBarometerVisibility
9:20 AM
Fri, Jul 3
75 °FSunny.5 mph69%30.24 "Hg10 mi
8:50 AM73 °FSunny.5 mph69%30.24 "Hg10 mi
8:20 AM72 °FSunny.5 mph78%30.24 "Hg10 mi
7:50 AM70 °FSunny.5 mph78%30.24 "Hg10 mi
7:20 AM70 °FSunny.6 mph78%30.24 "Hg10 mi
6:50 AM68 °FSunny.9 mph83%30.24 "Hg10 mi
6:20 AM68 °FClear.10 mph83%30.24 "Hg10 mi
5:50 AM68 °FClear.8 mph83%30.21 "Hg10 mi
5:20 AM70 °FClear.8 mph73%30.21 "Hg10 mi
4:50 AM70 °FClear.8 mph78%30.21 "Hg10 mi
4:20 AM72 °FClear.8 mph73%30.18 "Hg10 mi
3:50 AM70 °FClear.7 mph78%30.18 "Hg10 mi
3:20 AM72 °FClear.8 mph73%30.18 "Hg10 mi
2:50 AM72 °FClear.8 mph73%30.18 "Hg10 mi
2:20 AM72 °FClear.7 mph73%30.18 "Hg10 mi
1:50 AM73 °FClear.8 mph69%30.15 "Hg10 mi
1:20 AM75 °FClear.9 mph69%30.15 "Hg10 mi
12:50 AM77 °FClear.13 mph69%30.15 "Hg10 mi
12:20 AM79 °FScattered showers. Passing clouds.10 mph61%30.15 "HgN/A
11:50 PM
Thu, Jul 2
79 °FScattered showers. Passing clouds.12 mph65%30.12 "HgN/A
11:20 PM81 °FClear.9 mph62%30.12 "Hg10 mi
10:50 PM82 °FClear.8 mph51%30.09 "Hg10 mi
10:20 PM86 °FSunny.6 mph43%30.07 "Hg10 mi
9:50 PM88 °FSunny.7 mph38%30.07 "Hg10 mi
9:20 PM88 °FSunny.7 mph38%30.07 "Hg10 mi
8:50 PM90 °FSunny.7 mph38%30.07 "Hg10 mi
8:20 PM91 °FSunny.6 mph36%30.07 "Hg10 mi
7:50 PM91 °FSunny.7 mph34%30.07 "Hg10 mi
7:20 PM93 °FSunny.9 mph30%30.04 "Hg10 mi
6:50 PM95 °FSunny.12 mph28%30.04 "Hg10 mi
6:20 PM95 °FSunny.13 mph32%30.04 "Hg10 mi
5:50 PM95 °FSunny.14 mph28%30.04 "Hg10 mi
5:20 PM97 °FSunny.12 mph28%30.04 "Hg10 mi
4:50 PM97 °FSunny.13 mph27%30.07 "Hg10 mi
4:20 PM97 °FSunny.14 mph27%30.07 "Hg10 mi
3:50 PM95 °FSunny.13 mph30%30.04 "Hg10 mi
3:20 PM95 °FSunny.14 mph30%30.07 "Hg10 mi
2:50 PM95 °FSunny.13 mph32%30.07 "Hg10 mi
2:20 PM95 °FSunny.13 mph34%30.07 "Hg10 mi
1:50 PM93 °FSunny.12 mph36%30.07 "Hg10 mi
1:20 PM93 °FSunny.14 mph39%30.07 "Hg10 mi
12:50 PM91 °FSunny.13 mph38%30.07 "Hg10 mi
12:20 PM90 °FSunny.12 mph38%30.07 "Hg10 mi
11:50 AM90 °FSunny.13 mph41%30.07 "Hg10 mi
11:20 AM88 °FSunny.12 mph40%30.07 "Hg10 mi
10:50 AM86 °FSunny.12 mph43%30.07 "Hg10 mi
10:20 AM84 °FSunny.13 mph45%30.07 "Hg10 mi
Weather by CustomWeather, © 2015

See weather overviewHow to use our weather pages